[[{"header":{"parameterUnit":"m.s-1","parameterCategory":1,"la1":30.2991,"la2":30.254,"lo1":-89.0895,"lo2":-89.0444,"dy":0.0017,"dx":0.0017,"nx":28,"ny":28,"refTime":"2024-06-27T21:00:00:Z","depth":0,"parameterNumber":2,"parameterNumberName":"U-component_of_WINDS"},"data":[0,0,0,0,0,0,0,0,0,0,0,0,0,0,0,0,0,0,0,0,0,0,0,0,0,0,0,0,0,0,0,0,0,0,0,0,0,0,0,0,0,0,0,0,0,0,0,0,0,0,0,0,0,0,0,0,0,0,3.8289,3.8291,0,3.8401,3.8402,3.8404,3.8397,3.8395,3.8394,3.8392,3.8503,3.8507,3.8511,0,0,0,0,0,0,0,0,0,0,0,0,0,3.8065,3.8069,3.8289,3.8291,3.8292,3.8401,3.8402,3.8404,3.8397,3.8395,3.8393,3.8391,3.8501,3.8507,3.8512,0,0,0,0,0,0,0,0,0,0,0,0,0,3.8168,3.807,3.8289,3.8302,3.8304,3.8401,3.8402,3.8404,3.8398,3.8395,3.8393,3.8391,3.85,3.8506,3.8513,3.8602,0,0,3.8533,3.8536,0,0,0,0,0,0,0,0,3.8162,3.8176,3.8299,3.8301,3.8304,3.8383,3.8364,3.847,3.8398,3.8362,3.8392,3.8389,3.8465,3.8474,3.85,3.8607,3.8612,3.8534,3.8538,3.8541,3.8542,0,0,0,0,0,0,0,3.8155,3.8171,3.8333,3.83,3.8304,3.83,3.8312,3.8384,3.8425,3.8365,3.8365,3.8378,3.8465,3.8494,3.8503,3.8614,3.8533,3.8539,3.8543,3.8546,3.8795,3.8798,0,0,0,0,0,0,3.8145,3.8165,3.833,3.8337,3.8226,3.8306,3.832,3.836,3.8425,3.8432,3.838,3.8378,3.8483,3.8495,3.8506,3.8612,3.854,3.8547,3.8551,3.8793,3.8796,3.8799,0,0,0,0,0,0,3.8141,3.816,3.8325,3.8251,3.8272,3.8313,3.8358,3.8363,3.8391,3.8436,3.8443,3.8402,3.8482,3.8497,3.8578,3.8616,3.855,3.8556,3.879,3.8794,3.8797,3.8826,0,0,0,0,0,0,3.8134,3.8158,3.8194,3.8252,3.8276,3.8396,3.836,3.8367,3.8403,3.8401,3.8458,3.8465,3.8481,3.8568,3.8584,3.8624,3.8561,3.8786,3.8791,3.8796,3.8822,3.883,3.8838,0,0,0,0,0,3.8126,3.8198,3.8196,3.8216,3.8322,3.8399,3.8412,3.843,3.8407,3.8442,3.847,3.8463,3.861,3.8576,3.8595,3.8637,3.8784,3.879,3.8796,3.8818,3.8829,3.8838,0,0,0,0,0,0,3.8144,3.8206,3.8205,3.8298,3.8343,3.8398,3.8442,3.8441,3.8493,3.8489,3.8508,3.8521,3.8601,3.8627,3.8589,3.8725,3.8693,3.8703,3.8704,3.8715,3.8722,3.8713,3.8567,0,0,0,0,0,3.8158,3.8217,3.8268,3.8345,3.8368,3.8401,3.8436,3.8446,3.8493,3.8511,3.8546,3.859,3.8646,3.8682,3.8736,3.8826,3.8836,3.8864,3.8872,3.8879,3.8886,3.8931,3.8943,3.8818,3.8818,3.8818,0,0,3.8189,3.8231,3.8267,3.835,3.8386,3.8444,3.8418,3.8481,3.8523,3.8521,3.8598,3.8625,3.8676,3.876,3.8799,3.8785,3.8923,3.8886,3.8891,3.8895,3.8939,3.895,3.8961,3.8822,3.8821,3.8821,0,0,3.8274,3.8314,3.838,3.8417,3.8472,3.8493,3.8509,3.8564,3.8581,3.866,3.8657,3.8708,3.8804,3.8839,3.887,3.8966,3.896,3.8983,3.9024,3.9068,3.9078,3.9086,3.9117,3.9128,3.8991,3.8991,3.8991,0,3.8305,3.8394,3.8414,3.8477,3.8512,3.8513,3.8579,3.8613,3.8683,3.8706,3.8689,3.8808,3.8843,3.8933,3.8956,3.8983,3.8998,3.8975,3.9075,3.9084,3.9092,3.9121,3.9133,3.8993,3.8993,3.8992,3.8992,0,3.8427,3.8489,3.8536,3.8603,3.8644,3.8708,3.8735,3.8773,3.8779,3.8801,3.8879,3.8921,3.8981,3.9004,3.9011,3.9095,3.9084,3.9071,3.9039,3.9106,3.9133,3.9145,3.8996,3.8995,3.8994,3.8994,0,0,3.8526,3.8602,3.8619,3.8648,3.8708,3.8755,3.8818,3.8878,3.8908,3.8956,3.9007,3.9087,3.9075,3.911,3.912,3.9159,3.9228,3.9141,3.9143,3.9153,3.9318,3.9325,3.9338,3.9226,3.9228,3.923,3.9313,0,3.8615,3.8727,3.8746,3.8844,3.8898,3.8899,3.8953,3.8995,3.9017,3.9065,3.9089,3.9144,3.9126,3.9146,3.9185,3.9211,3.9261,3.9206,3.927,3.9272,3.9254,3.9353,3.9362,3.9438,3.9324,3.9326,3.9328,0,3.8733,3.8783,3.8887,3.8936,3.896,3.9009,3.9063,3.911,3.9156,3.9169,3.9207,3.9212,3.9274,3.9242,3.9326,3.9288,3.9315,3.9332,3.9335,3.9339,3.9302,3.9357,3.9464,3.9474,3.9345,3.9344,3.9343,0,3.879,3.8884,3.8957,3.8982,3.9043,3.9076,3.9103,3.9146,3.918,3.9227,3.9249,3.9303,3.9331,3.9372,3.939,3.9366,3.9472,3.9442,3.9482,3.9481,3.9502,3.95,3.9611,3.9525,3.9525,3.9525,3.9524,0,3.8885,3.8947,3.8982,3.9027,3.9095,3.9115,3.9182,3.9207,3.9246,3.9293,3.9298,3.9342,3.9365,3.9412,3.9427,3.9492,3.9506,3.9516,3.9518,3.9514,3.9512,3.953,3.9524,3.9528,3.9527,3.9526,3.9526,0,3.8959,3.8986,3.9065,3.9116,3.913,3.9177,3.922,3.9261,3.9283,3.9343,3.9358,3.9391,3.9446,3.947,3.9538,3.9547,3.9621,3.9621,3.9605,3.9605,3.9642,3.9637,3.9766,3.9783,3.9689,3.969,3.9691,0,3.9016,3.9064,3.912,3.9152,3.9179,3.9232,3.9266,3.9287,3.9322,3.9376,3.9411,3.9466,3.9511,3.9599,3.9627,3.9678,3.9678,3.972,3.9685,3.9678,3.9674,3.967,3.9673,3.9725,3.9726,3.9727,3.9727,0,3.9114,3.9124,3.9174,3.9228,3.9268,3.9312,3.9354,3.938,3.9406,3.9445,3.9502,3.9537,3.9605,3.9659,3.9711,3.9736,3.9735,3.9738,3.9749,3.9743,3.9731,3.9734,3.9619,3.9734,3.9734,3.9733,3.9733,3.9732,3.9179,3.922,3.9265,3.9319,3.9353,3.9391,3.9432,3.9459,3.9506,3.9564,3.9573,3.9633,3.9674,3.9744,3.9771,3.9817,3.9806,3.9823,3.9827,3.983,3.983,3.9726,3.9827,3.9826,3.9826,3.9826,3.9826,0,3.9273,3.9302,3.9352,3.941,3.9452,3.9449,3.9495,3.9529,3.9582,3.9621,3.9665,3.9728,3.978,3.9813,3.9864,3.9893,3.9894,3.9906,3.9902,3.9907,3.9839,3.9822,3.9904,3.9904,3.9904,3.9904,3.9904,3.9904,3.9327,3.9395,3.941,3.9494,3.9522,3.9581,3.9606,3.9641,3.9672,3.9742,3.9785,3.9807,3.9842,3.9896,3.9942,3.995,3.9967,3.9979,3.9986,3.9921,3.9913,3.9905,3.9889,3.9984,3.9984,4.005,4.0051,4.0051]},{"header":{"parameterUnit":"m.s-1","parameterCategory":1,"la1":30.2991,"la2":30.254,"lo1":-89.0895,"lo2":-89.0444,"dy":0.0017,"dx":0.0017,"nx":28,"ny":28,"refTime":"2024-06-27T21:00:00:Z","depth":0,"parameterNumber":3,"parameterNumberName":"V-component_of_WINDS"},"data":[0,0,0,0,0,0,0,0,0,0,0,0,0,0,0,0,0,0,0,0,0,0,0,0,0,0,0,0,0,0,0,0,0,0,0,0,0,0,0,0,0,0,0,0,0,0,0,0,0,0,0,0,0,0,0,0,0,0,6.1215,6.1217,0,6.1358,6.136,6.1361,6.1307,6.1303,6.13,6.1297,6.1437,6.1443,6.145,0,0,0,0,0,0,0,0,0,0,0,0,0,6.0888,6.0894,6.1215,6.1217,6.1219,6.1358,6.136,6.1362,6.1307,6.1303,6.1299,6.1296,6.1434,6.1442,6.1451,0,0,0,0,0,0,0,0,0,0,0,0,0,6.103,6.0897,6.1215,6.1209,6.121,6.1357,6.136,6.1362,6.1308,6.1303,6.1298,6.1294,6.1432,6.1442,6.1452,6.1612,0,0,6.1483,6.1487,0,0,0,0,0,0,0,0,6.1022,6.1042,6.1208,6.1209,6.1211,6.131,6.1295,6.1446,6.1309,6.1271,6.1297,6.1291,6.1398,6.1411,6.1448,6.1619,6.1625,6.1483,6.149,6.1494,6.1497,0,0,0,0,0,0,0,6.1013,6.1036,6.1271,6.121,6.1212,6.1196,6.1211,6.1324,6.136,6.1274,6.127,6.1288,6.1398,6.1438,6.1451,6.1627,6.1483,6.1492,6.1498,6.1502,6.1933,6.1938,0,0,0,0,0,0,6.1003,6.1028,6.1267,6.1276,6.1103,6.1206,6.1223,6.1283,6.1358,6.1365,6.1292,6.1285,6.1423,6.1439,6.1455,6.1647,6.1494,6.1503,6.1509,6.1928,6.1934,6.194,0,0,0,0,0,0,6.0996,6.1025,6.1261,6.1151,6.118,6.1217,6.1285,6.1288,6.1329,6.1372,6.1378,6.1327,6.142,6.1441,6.1573,6.1651,6.1508,6.1517,6.1921,6.193,6.1937,6.2032,0,0,0,0,0,0,6.0987,6.1023,6.1086,6.1153,6.1186,6.138,6.129,6.1294,6.1347,6.1339,6.1407,6.1413,6.1418,6.1559,6.1583,6.1662,6.1525,6.1914,6.1925,6.1934,6.2022,6.2042,6.2059,0,0,0,0,0,6.0976,6.1107,6.109,6.1119,6.1267,6.1384,6.1403,6.1407,6.1354,6.1416,6.1444,6.1411,6.1638,6.1573,6.16,6.1683,6.191,6.1922,6.1934,6.2013,6.2038,6.2059,0,0,0,0,0,0,6.1046,6.1115,6.1098,6.1254,6.1314,6.1375,6.1454,6.1433,6.1508,6.1497,6.1497,6.1513,6.1649,6.1679,6.1605,6.1841,6.1765,6.1784,6.1816,6.184,6.1859,6.1848,6.1534,0,0,0,0,0,6.1081,6.1173,6.1227,6.136,6.1391,6.1418,6.1469,6.1467,6.1528,6.1552,6.159,6.1648,6.1732,6.1788,6.1868,6.2025,6.2038,6.2096,6.2114,6.2129,6.2145,6.2228,6.2254,6.1979,6.1979,6.1979,0,0,6.1151,6.12,6.1258,6.1375,6.1421,6.1514,6.1439,6.1541,6.1609,6.1567,6.1695,6.1724,6.1789,6.1934,6.2,6.1963,6.2223,6.2145,6.2157,6.2164,6.2243,6.2269,6.2292,6.1988,6.1986,6.1985,0,0,6.1328,6.1375,6.149,6.1538,6.1609,6.1626,6.1653,6.1718,6.1736,6.1864,6.1834,6.1913,6.2059,6.2106,6.2149,6.2341,6.2313,6.2367,6.2464,6.2545,6.2567,6.2586,6.2653,6.2677,6.2382,6.2382,6.2382,0,6.1407,6.1548,6.1552,6.1656,6.1707,6.1675,6.179,6.1835,6.1928,6.1962,6.192,6.2101,6.2143,6.2298,6.2344,6.2381,6.241,6.2359,6.2564,6.2583,6.2601,6.2665,6.269,6.2388,6.2387,6.2387,6.2386,0,6.164,6.1738,6.1822,6.1915,6.1975,6.2084,6.2101,6.2161,6.2153,6.2173,6.2303,6.2351,6.2439,6.2476,6.2469,6.2629,6.2604,6.2563,6.2487,6.2633,6.2693,6.2717,6.2397,6.2395,6.2393,6.2391,0,0,6.1867,6.1959,6.1989,6.203,6.2105,6.218,6.2285,6.2374,6.2424,6.2488,6.2576,6.2699,6.2661,6.271,6.2707,6.2779,6.2925,6.2729,6.273,6.2762,6.3102,6.3132,6.3161,6.2907,6.2912,6.2915,6.3096,0,6.2048,6.2237,6.2243,6.2414,6.2503,6.2473,6.2564,6.2619,6.264,6.2716,6.2738,6.2825,6.277,6.2798,6.2868,6.2893,6.2993,6.288,6.2986,6.299,6.297,6.3192,6.3225,6.3393,6.312,6.3124,6.3127,0,6.2286,6.236,6.2541,6.2601,6.2639,6.2722,6.2802,6.2876,6.2936,6.2945,6.3,6.2986,6.3091,6.3012,6.3155,6.3077,6.312,6.3139,6.3146,6.3155,6.3067,6.3207,6.3447,6.3472,6.3164,6.3161,6.3158,0,6.2431,6.2575,6.2702,6.2738,6.2812,6.287,6.2903,6.2959,6.3011,6.3079,6.3112,6.3192,6.3235,6.3296,6.3303,6.3245,6.3446,6.3368,6.3455,6.3455,6.3499,6.3496,6.3749,6.3528,6.3527,6.3527,6.3526,0,6.2634,6.2745,6.2768,6.2846,6.2969,6.2972,6.3093,6.3121,6.317,6.325,6.3228,6.3303,6.3308,6.3384,6.339,6.3506,6.3526,6.3535,6.3535,6.3537,6.3536,6.3565,6.3553,6.3534,6.3532,6.3531,6.353,0,6.2817,6.2837,6.2973,6.3032,6.3049,6.3137,6.3186,6.3259,6.3277,6.3379,6.3403,6.343,6.3519,6.3532,6.3635,6.3639,6.3778,6.3766,6.3759,6.3757,6.3843,6.3834,6.4123,6.416,6.3916,6.3918,6.392,0,6.2945,6.303,6.3098,6.3152,6.3188,6.3274,6.3327,6.3333,6.3388,6.3462,6.3525,6.3612,6.3681,6.3824,6.3851,6.3929,6.3919,6.4014,6.393,6.3929,6.3919,6.3913,6.3921,6.403,6.4033,6.4035,6.4037,0,6.3169,6.3174,6.3253,6.3335,6.3399,6.3463,6.3524,6.3568,6.358,6.3643,6.3735,6.3789,6.3895,6.398,6.4057,6.4088,6.4064,6.4063,6.4087,6.409,6.4082,6.4086,6.3803,6.4057,6.4055,6.4053,6.4052,6.4051,6.3328,6.3401,6.3461,6.3548,6.3594,6.3651,6.3722,6.3749,6.3826,6.3914,6.3911,6.4011,6.4065,6.4167,6.4203,6.4279,6.4247,6.4283,6.4292,6.43,6.4308,6.407,6.4293,6.4293,6.4292,6.4292,6.4291,0,6.3549,6.3586,6.3666,6.3752,6.382,6.3794,6.3858,6.3916,6.4005,6.4059,6.4128,6.4232,6.4314,6.4348,6.4428,6.4482,6.4473,6.4503,6.4498,6.4505,6.4332,6.4303,6.4508,6.4508,6.4508,6.4508,6.4508,6.4508,6.3673,6.3796,6.3808,6.3952,6.3986,6.4086,6.4125,6.4176,6.4219,6.4336,6.4405,6.4427,6.4472,6.4554,6.4628,6.4635,6.4665,6.4699,6.4702,6.454,6.4518,6.4497,6.4469,6.4706,6.4706,6.4868,6.487,6.4871]}]]